Terminal Aerodrome Forecast
Issued by NWS

Current Version | Previous Version | Text Only | Print | Product List | Glossary On
Versions: 1 2 3 4 5 6 7 8 9 10 11 12 13 14 15 16 17
000 FTUS41 KBTV 290828 AAA TAFMPV TAF AMD KMPV 290828Z 2908/3006 00000KT 1SM BR VV002 FM290900 00000KT 1/4SM FG VV002 FM291300 00000KT 4SM BR OVC003 FM291400 00000KT P6SM FEW250 FM291800 31006KT P6SM FEW070 BKN250 FM300000 00000KT P6SM SCT250=

USA.gov is the U.S. government's official web portal to all federal, state and local government web resources and services.